Location: Baix
(44.7118°N, 4.7648°E)
Time: 07:20:20
(UTC+00:00)

Vanguard 1 - Pass Details

Date: 30 November 2020
Orbit: 648 x 3834 km, 34.3° (Epoch: 21 January)

Event Time Altitude Azimuth Distance (km) Brightness Sun altitude
Rises 11:17:00 0° 268° (W) 5,501 13.9 23.5°
Reaches altitude 10° 11:21:46 10° 252° (WSW) 5,024 14.0 23.5°
Maximum altitude 11:31:04 19° 214° (SW) 5,137 14.9 23.5°
Drops below altitude 10° 11:43:09 10° 178° (S) 6,636 16.3 23.5°
Sets 11:51:25 0° 164° (SSE) 7,919 15.8 23.3°
